Mitchell, SD

2:36 PM CST on December 09, 2019 (GMT -0600)
Mitchell Municipal

Weather History for KMHE - November, 2019

Change the Weather History Date:

Friday, November 15, 2019

  Actual Average Record
Temperature  
Mean Temperature 42 °F 34 °F  
Max Temperature 57 °F 45 °F 81 °F (1953)
Min Temperature 27 °F 24 °F 0 °F (1940)
Degree Days  
Heating Degree Days 23 31  
Month to date heating degree days 505 397  
Since 1 July heating degree days 1184 1038  
Cooling Degree Days 0 0  
Month to date cooling degree days 0 0  
Year to date cooling degree days 937 824  
Moisture  
Dew Point 31 °F    
Average Humidity 68    
Maximum Humidity 92    
Minimum Humidity 43    
Precipitation  
Precipitation 0.00 in 0.02 in 0.38 in (1947)
Month to date precipitation 0.12 0.51  
Year to date precipitation 34.12 20.80  
Snow  
Snow 0.00 in - 4.70 in (2014)
Month to date snowfall 0.6  
Since 1 July snowfall 0.6  
Since 1 September snowfall 0.6  
Snow Depth 0.00 in    
Sea Level Pressure  
Sea Level Pressure 30.15 in    
Wind  
Wind Speed 11 mph (SE)    
Max Wind Speed 21 mph    
Max Gust Speed 28 mph    
Visibility 10 miles    
Events      
T = Trace of Precipitation, MM = Missing Value Source: NWS Daily Summary

Daily Weather History Graph

Daily Weather History Graph

Search for Another Location

Airport or City:

Astronomy

Nov. 15, 2019 Rise Set
Actual Time 7:26 AM CST 5:06 PM CST
Civil Twilight 6:55 AM CST 5:37 PM CST
Nautical Twilight 6:20 AM CST 6:12 PM CST
Astronomical Twilight 5:46 AM CST 6:46 PM CST
Moon 7:39 PM CST (11/15) 10:27 AM CST (11/15)
Length of Visible Light 10h 42m
Length of Day
9h 40m
Waning Gibbous, 90% of the Moon is Illuminated
Nov 15
Waning Gibbous
Nov 19
Last Quarter
Nov 26
New
Dec 4
First Quarter
Dec 11
Full

Hourly Weather History & Observations

Time (CST) Temp. Windchill Dew Point Humidity Pressure Visibility Wind Dir Wind Speed Gust Speed Precip Events Conditions
12:53 AM 32.0 °F 26.4 °F 27.0 °F 82% 30.27 in 10.0 mi South 5.8 mph - N/A   Clear
1:53 AM 27.0 °F 20.5 °F 24.1 °F 89% 30.26 in 10.0 mi SE 5.8 mph - N/A   Clear
2:53 AM 28.0 °F 21.7 °F 25.0 °F 88% 30.25 in 10.0 mi SSE 5.8 mph - N/A   Clear
3:53 AM 28.0 °F 21.7 °F 25.0 °F 88% 30.24 in 10.0 mi SSE 5.8 mph - N/A   Clear
4:53 AM 28.9 °F 21.1 °F 26.1 °F 89% 30.23 in 10.0 mi SSE 8.1 mph - N/A   Clear
5:53 AM 30.0 °F 22.4 °F 27.0 °F 88% 30.23 in 10.0 mi SSE 8.1 mph - N/A   Clear
6:53 AM 28.9 °F 21.1 °F 26.1 °F 89% 30.22 in 10.0 mi SE 8.1 mph - N/A   Clear
7:53 AM 30.0 °F 24.1 °F 27.0 °F 88% 30.22 in 10.0 mi SE 5.8 mph - N/A   Clear
8:53 AM 34.0 °F 27.2 °F 28.9 °F 82% 30.22 in 10.0 mi SSE 8.1 mph - N/A   Clear
9:53 AM 39.0 °F 31.8 °F 33.1 °F 79% 30.20 in 10.0 mi SSE 11.5 mph - N/A   Clear
10:53 AM 46.0 °F 41.0 °F 33.1 °F 61% 30.19 in 10.0 mi SSE 10.4 mph - N/A   Clear
11:53 AM 48.0 °F - 34.0 °F 58% 30.17 in 10.0 mi ESE 12.7 mph - N/A   Clear
12:53 PM 53.1 °F - 34.0 °F 48% 30.13 in 10.0 mi SE 18.4 mph - N/A   Clear
1:53 PM 55.9 °F - 34.0 °F 44% 30.10 in 10.0 mi SE 19.6 mph - N/A   Clear
2:53 PM 57.0 °F - 35.1 °F 44% 30.07 in 10.0 mi SE 15.0 mph 24.2 mph N/A   Clear
3:53 PM 55.0 °F - 36.0 °F 49% 30.07 in 10.0 mi SE 12.7 mph - N/A   Clear
4:53 PM 50.0 °F - 36.0 °F 59% 30.07 in 10.0 mi SE 11.5 mph - N/A   Clear
5:53 PM 44.1 °F 38.6 °F 35.1 °F 71% 30.08 in 10.0 mi ESE 10.4 mph - N/A   Clear
6:53 PM 45.0 °F 38.5 °F 34.0 °F 65% 30.08 in 10.0 mi SE 13.8 mph - N/A   Clear
7:53 PM 44.1 °F 37.1 °F 33.1 °F 65% 30.07 in 10.0 mi SSE 15.0 mph - N/A   Clear
8:53 PM 43.0 °F 36.0 °F 33.1 °F 68% 30.07 in 10.0 mi SSE 13.8 mph - N/A   Clear
9:53 PM 43.0 °F 35.7 °F 32.0 °F 65% 30.06 in 10.0 mi SSE 15.0 mph - N/A   Clear
10:53 PM 41.0 °F 33.1 °F 32.0 °F 70% 30.04 in 10.0 mi SSE 15.0 mph - N/A   Clear
11:53 PM 39.9 °F 31.4 °F 30.9 °F 70% 30.03 in 10.0 mi SSE 16.1 mph - N/A   Clear